CZ-6A DEB

Satellite information

Favourite Embed

Satellite Type and Status

DEBRISIN ORBIT

Key statistics

Satellite CZ-6A DEB at a glance.

Uptime

393

Days in orbit

Revolutions

≈ 14.3

Per day

Orbit

LEO

Low Earth Orbit

Inclination

89.0

Latest

Satellite identification and parameters

Extended collection of information and parameters for CZ-6A DEB.

Object identification

Identified? True

Debris? True

Object name: CZ-6A DEB

International designator: 2024-140QT

Object number (NORAD): 61149

Object ID (CCSDS): 61149

Country: PEOPLES REPUBLIC OF CHINA (PRC)

Current information (Y/N): Y

RCS size: SMALL

Orbital parameters

Period: 100.908 minutes

Inclination: 88.9536 deg

SMA: 7179.748 km

Apoapsis: 825.016 km

Periapsis: 778.21 km

RAAN: 304.3634 deg

Eccentricy: 0.0032596

Argument of periapsis: 90.5396 deg

Mean anomaly: 269.9533 deg

Mean motion: 14.270492 rev/day

Mean motion (dot): 0.00000916 rev/day2

B* drag term: 0.00036840167 1/REarth

Two-line elements (TLE)

Creation date: Sept. 3, 2025, 2:21 a.m.

Reference frame: TEME

Reference center: EARTH

Epoch: Sept. 2, 2025, 3:26 p.m. UTC

TLE line 0: 0 CZ-6A DEB

TLE line 1: 1 61149U 24140QT 25245.64348961 .00000916 00000-0 36840-3 0 9991

TLE line 2: 2 61149 88.9536 304.3634 0032596 90.5396 269.9533 14.27049200 53703

Live tracking on map

Real-time ground track for satellite CZ-6A DEB.

In-orbit conjunctions

A list of the most updated potential collisions computed for object CZ-6A DEB.

Target Orbit TCA Probability of collision Miss distance Type
CZ-2C R/B SSO 2025-07-25 16:52:45 0.0004203301 181.0 (m) ROCKET BODY
DMSP 5D-2 F13 DEB SSO 2025-06-28 10:23:33 0.0041808 7.0 (m) DEBRIS
IRIDIUM 33 DEB LEO 2025-02-26 22:17:54 0.000114899 664.0 (m) DEBRIS
COSMOS 1275 DEB LEO 2024-09-22 23:42:25 0.0001016849 666.0 (m) DEBRIS

Associated space launch

18 Low Earth Orbit communication satellites with Ku, Q and V band payloads for the G60 constellation operated by Shanghai Spacecom Satellite Technology (SSST) with funding backed by the Shanghai local government. Initial constellation will consist of 1296 satellites by 2027 with long term plans to expand it to 12000 satellites.

CZ-6A DEB was lifted into orbit during the mission ‘Long March 6A | G60 Polar Group 01’, on board a Long March 6A space rocket.

The launch took place on Aug. 6, 2024, 6:42 a.m. from Launch Complex 9A.

For more information about the launch, click the button.

Launch to space Long March 6A | G60 Polar Group 01
Long March 6A | G60 Polar Group 01

Agency: N/A

Status: Launch Successful

Launch date: Aug. 6, 2024, 6:42 a.m. UTC

Rocket: Long March 6A

Launch pad: Launch Complex 9A

Location: Taiyuan Satellite Launch Center, People's Republic of China

...

Latest news about this satellite

News about space launch
Brightness of first Chinese broadband constellation satellites alarms astronomers

The first satellites of a Chinese broadband constellation are significantly brighter than those of Western systems, posing a new challenge for astronomers.

News about space launch
Chinese rocket stage breaks up into cloud of more than 700 pieces of space debris

HELSINKI — A Chinese Long March 6A rocket’s upper stage has fragmented into a cloud of over 700 pieces of space debris, adding to concerns about long-term orbital safety. China […]

News about space launch
China's Thousand Sails Megaconstellation Kicks Off with Dangerous Debris Field

China's Thousand Sails Megaconstellation Kicks Off with Dangerous Debris Field


Newsletter sign-up

Weekly statistics, charts and insights to help you stay on top of the space industry.